User: anonymous   Login
Location: Unspecified
(0.0000°N, 0.0000°E)
Time: 23:10:11
(UTC+02:00)
Language:

ATLAS 3B CENTAUR R/B - Orbit

View from above orbital plane
View from above orbital plane
View from above satellite
View from above satellite

Ground track
Ground track

The orbit data is extracted from the following two-line orbital elements,

1 28118U 03057B   14298.11341728  .00107964  00000-0  25757-2 0  8440
2 28118 028.1363 226.2781 3804441 167.1404 339.0226 07.87932588205740
Epoch (UTC): 25 October 2014 02:43:19
Eccentricity: 0.3804441
inclination: 28.1363°
perigee height: 231 km
apogee height: 8348 km
right ascension of ascending node: 226.2781°
argument of perigee: 167.1404°
revolutions per day: 7.87932588
mean anomaly at epoch: 339.0226°
orbit number at epoch: 20574

The dashed part of the orbit path shows where the satellite is in the earth's shadow,  

DLR